Regional Weather Roundup
Issued by NWS

Home | Current Version | Previous Version | Graphics & Text | Print | Product List | Glossary On
Versions: 1 2 3 4 5 6 7 8 9 10 11 12 13 14 15 16 17 18 19 20 21 22 23 24 25 26 27 28 29 30 31 32 33 34 35 36 37 38 39 40 41 42 43 44 45 46 47 48 49 50
000
ASUS43 KMPX 261010
RWRMN
WEATHER ROUNDUP FOR MINNESOTA
NATIONAL WEATHER SERVICE TWIN CITIES/CHANHASSEN MN
500 AM CDT MON SEP 26 2016


NOTE: "FAIR" INDICATES FEW OR NO CLOUDS BELOW 12,000 FEET WITH NO
SIGNIFICANT WEATHER AND/OR OBSTRUCTIONS TO VISIBILITY. N/A MEANS
CURRENT SKY AND/OR WEATHER CONDITIONS ARE NOT AVAILABLE.

MNZ060>063-068>070-261100-
   Twin Cities Metro

CITY           SKY/WX    TMP DP  RH WIND       PRES   REMARKS
TWIN CITIES    CLEAR     52  41  66 W14       29.93S
ST PAUL        CLEAR     51  43  74 W14       29.93S
CRYSTAL        CLEAR     52  40  63 W15       29.91S
BLAINE         CLEAR     54  45  71 W12       29.91S
LAKEVILLE      CLEAR     48  41  76 W9        29.95S
EDEN PRAIRIE   CLEAR     51  41  68 W10       29.93S
LAKEVILLE      CLEAR     48  41  76 W9        29.95S
SOUTH ST PAUL  CLEAR     51  42  71 W12       29.92F
LAKE ELMO      FAIR      50  45  81 SW8       29.92S
$$
MNZ001>005-007-008-013>017-022>024-027-028-261100-
   Northwest Minnesota

CITY           SKY/WX    TMP DP  RH WIND       PRES   REMARKS
BEMIDJI        PTCLDY    47  40  76 W17G24    29.83S
HALLOCK        CLEAR     50  39  66 NW18G25   29.87S
ROSEAU         CLOUDY    48  43  81 W15       29.79S
WARROAD        CLOUDY    48  45  87 W15G22    29.77S
THIEF RVR FALL MOCLDY    47  39  74 W15       29.88S
CROOKSTON      PTCLDY    46  39  76 NW15      29.91S
FOSSTON        PTCLDY    45  39  81 W17G23    29.89S
DETROIT LAKES  PTCLDY    46  37  71 NW15G23   29.94R
MOORHEAD       CLEAR     48  37  66 W18       29.97S
PARK RAPIDS    PTCLDY    47  38  71 W15       29.88R
MAHNOMEN       FAIR      44  39  82 W13       29.91R
$$
MNZ006-009>011-018-025>026-261100-
   North Central Minnesota

CITY           SKY/WX    TMP DP  RH WIND       PRES   REMARKS
BAUDETTE       LGT RAIN  49  46  90 W16G25    29.72S
FLAG ISLAND    CLOUDY    50  46  87 NW22G29   29.70S
INTL FALLS     LGT RAIN  50  47  89 W16G28    29.65S
WASKISH        CLOUDY    50  45  81 W20G29    29.77R
BIG FORK       LGT RAIN  48  46  93 W7        29.74R
GRAND RAPIDS   CLOUDY    49  45  86 W13G24    29.78S
COOK           RAIN      48  46  93 W15G24    29.66F
WALKER         FAIR      46  40  79 W15G21    29.84R
$$
MNZ012-019>021-037-261100-
   Northeast Minnesota

CITY           SKY/WX    TMP DP  RH WIND       PRES   REMARKS
DULUTH         LGT RAIN  49  48  97 W21G31    29.70S
ELY            DRIZZLE   48  48 100 W14G22    29.60S
HIBBING        LGT RAIN  48  46  93 W16G22    29.70S
EVELETH        LGT RAIN  50  47  91 W14G26    29.69S
DULUTH HARBOR  DRIZZLE   52  48  87 W22       29.72S
TWO HARBORS    DRIZZLE   54  48  82 W12G18    29.64R
SILVER BAY     RAIN      52  48  87 W6        29.60S
GRAND MARAIS     N/A     54  52  93 W7        29.55F
G MARAIS ARPRT CLOUDY    48  45  87 SW5       29.56F FOG
$$
MNZ029>031-032-039>041-046>048-054>057-064-261100-
   West Central Minnesota

CITY           SKY/WX    TMP DP  RH WIND       PRES   REMARKS
FERGUS FALLS   CLEAR     45  37  76 W10       30.00S
MORRIS         CLEAR     48  37  66 W13       30.00S
ALEXANDRIA     CLEAR     48  39  71 W16G24    29.97S
ELBOW LAKE     FAIR      46  38  72 NW12      29.99S
GLENWOOD       CLEAR     46  39  76 W16       29.98S
BENSON         CLEAR     48  37  66 NW13      30.01S
MADISON          N/A     48  39  71 W9        30.06R
WILLMAR        FAIR      48  41  76 W10       30.01S
$$
MNZ033>034-036-042>043-049>051-058-059-261100-
   Central Minnesota

CITY           SKY/WX    TMP DP  RH WIND       PRES   REMARKS
ST CLOUD       CLEAR     50  41  71 W16       29.92R
SAUK CENTRE    FAIR      48  38  70 W14       29.95S
PAYNESVILLE    CLEAR     49  39  68 W13G20    29.97S
AITKIN         CLOUDY    52  43  71 W6G18     29.81S
PINE RIVER     MOCLDY    48  43  81 W9        29.89R
BRAINERD       PTCLDY    50  41  71 W15G25    29.87S
STAPLES        PTCLDY    46  39  76 W10       29.90S
LONG PRAIRIE   FAIR      46  39  76 W12       29.94S
LITTLE FALLS   CLEAR     48  37  66 W12       29.91R
LITCHFIELD     CLEAR     52  43  71 W13G20    29.98R
BUFFALO        CLEAR     51  41  68 W12       29.95S
MAPLE LAKE     CLEAR     52  42  68 W10G17    29.95R
HUTCHINSON     CLEAR     51  41  69 W13       29.99S
$$
MNZ037-044-045-052-053-261100-
   East Central Minnesota

CITY           SKY/WX    TMP DP  RH WIND       PRES   REMARKS
PRINCETON      CLEAR     52  43  71 W12       29.90S
MORA           CLOUDY    50  43  76 W12G22    29.87S
CAMBRIDGE      CLOUDY    54  43  66 W12G23    29.87S
MOOSE LAKE     CLOUDY    50  45  81 W8G18     29.77S
HINCKLEY       CLOUDY    50  46  87 W12       29.83S
CLOQUET        LGT RAIN  48  46  93 W17       29.74S
MCGREGOR       CLOUDY    48  45  87 W10G16    29.80S
$$
MNZ071>073-080-081-089-090-097-098-261100-
   Southwest Minnesota

CITY           SKY/WX    TMP DP  RH WIND       PRES   REMARKS
MONTEVIDEO     CLEAR     48  37  66 NW12      30.05S
GRANITE FALLS  CLEAR     49  39  69 W12G17    30.06S
CANBY          CLEAR     49  37  64 NW16G22   30.08S
MARSHALL       CLEAR     48  37  65 W15       30.07S
REDWOOD FALLS  CLEAR     50  37  61 W15       30.03R
OLIVIA         CLEAR     50  37  62 W12       30.01R
PIPESTONE      CLEAR     45  36  70 W7        30.12R
WINDOM         CLEAR     48  37  66 W10       30.08R
WORTHINGTON    CLEAR     45  37  73 W12       30.12R
JACKSON        CLEAR     46  36  66 W13G18    30.09R
TRACY          CLEAR     49  39  67 W7        30.08S
$$
MNZ065>067-074>077-082>085-091>093-261100-
   South Central Minnesota

CITY           SKY/WX    TMP DP  RH WIND       PRES   REMARKS
MANKATO        CLEAR     50  39  66 W14       30.01S
ST JAMES       CLEAR     52  37  58 W10       30.06R
FAIRMONT       CLEAR     50  38  63 W13       30.06S
GLENCOE        CLEAR     50  43  76 W8        29.97S
FARIBAULT      CLEAR     52  43  71 W14       29.98S
OWATONNA       CLEAR     48  41  76 SW7       29.99S
WASECA         CLEAR     48  41  76 W8        30.01S
ALBERT LEA     CLEAR     50  39  66 W8        30.02S
$$
MNZ078>079-086>088-094>096-261100-
   Southeast Minnesota

CITY           SKY/WX    TMP DP  RH WIND       PRES   REMARKS
ROCHESTER      CLEAR     49  41  74 W13       29.98S
RED WING       CLEAR     52  43  71 W9        29.92S
STANTON        CLEAR     51  41  70 SW8       29.94F
DODGE CENTER   CLEAR     46  41  81 W12       29.98S
WINONA         CLEAR     54  43  66 W6G16     29.94F
AUSTIN         CLEAR     50  39  66 W10G16    30.00F
PRESTON        CLEAR     48  40  75 W9        29.99S
$$
ABBREVIATIONS USED IN REMARKS
   TC - TEMPERATURES IN CELSIUS
  WCI - WIND CHILL INDEX
   HX - HEAT INDEX
  VSB - VISIBILITY
$$



USA.gov is the U.S. government's official web portal to all federal, state and local government web resources and services.